• In Deutschland
  • Länderverzeichnis
  • Für 7 Tage
  • Wassertemperatur
  • Satellitenkarten
  • Wetterkarte
  • Widgets
  • user-avatar
    Anmelden

    Stündliche Wetter Orscha

    Heute, 17 August, Donnerstag

    Zeit Temperatur Niederschläge Wind Luftdruck Luftfeuchtigkeit
    00:00 +18°C° 0,2 mm 3 m/S 750 mmHg 91%
    01:00 +17°C° 0,2 mm 3 m/S 750 mmHg 91%
    02:00 +17°C° 0 mm 3 m/S 750 mmHg 92%
    03:00 +17°C° 0,3 mm 3 m/S 750 mmHg 93%
    04:00 +16°C° 0,3 mm 3 m/S 750 mmHg 93%
    05:00 +16°C° 0,3 mm 3 m/S 750 mmHg 94%
    06:00 +18°C° 0,1 mm 3 m/S 750 mmHg 91%
    07:00 +19°C° 0,1 mm 3 m/S 750 mmHg 87%
    08:00 +20°C° 0 mm 4 m/S 751 mmHg 83%
    09:00 +22°C° 0 mm 4 m/S 751 mmHg 76%
    10:00 +25°C° 0 mm 4 m/S 751 mmHg 70%
    11:00 +26°C° 0 mm 4 m/S 751 mmHg 63%
    12:00 +27°C° 0,1 mm 3 m/S 750 mmHg 61%
    13:00 +27°C° 0,1 mm 3 m/S 750 mmHg 59%
    14:00 +28°C° 0,1 mm 3 m/S 750 mmHg 58%
    15:00 +28°C° 0,2 mm 3 m/S 750 mmHg 61%
    16:00 +27°C° 0,2 mm 2 m/S 750 mmHg 64%
    17:00 +27°C° 0,2 mm 2 m/S 749 mmHg 67%
    18:00 +25°C° 0,1 mm 2 m/S 749 mmHg 70%
    19:00 +24°C° 0,1 mm 2 m/S 749 mmHg 73%
    20:00 +21°C° 0,1 mm 2 m/S 749 mmHg 76%
    21:00 +21°C° 0,4 mm 2 m/S 749 mmHg 77%
    22:00 +20°C° 0,4 mm 2 m/S 749 mmHg 79%
    23:00 +19°C° 0,4 mm 2 m/S 749 mmHg 81%

    Morgen, 18 August, Freitag

    Zeit Temperatur Niederschläge Wind Luftdruck Luftfeuchtigkeit
    00:00 +19°C° 0,3 mm 2 m/S 749 mmHg 82%
    01:00 +19°C° 0,3 mm 2 m/S 749 mmHg 84%
    02:00 +18°C° 0,3 mm 2 m/S 749 mmHg 86%
    03:00 +18°C° 0 mm 2 m/S 749 mmHg 87%
    04:00 +18°C° 0 mm 2 m/S 749 mmHg 88%
    05:00 +17°C° 0 mm 2 m/S 749 mmHg 89%
    06:00 +19°C° 0 mm 3 m/S 749 mmHg 86%
    07:00 +20°C° 0 mm 3 m/S 749 mmHg 82%
    08:00 +22°C° 0 mm 3 m/S 749 mmHg 78%
    09:00 +23°C° 0 mm 4 m/S 749 mmHg 72%
    10:00 +26°C° 0 mm 4 m/S 749 mmHg 66%
    11:00 +28°C° 0 mm 4 m/S 749 mmHg 60%
    12:00 +28°C° 0 mm 4 m/S 749 mmHg 57%
    13:00 +29°C° 0 mm 4 m/S 749 mmHg 53%
    14:00 +30°C° 0 mm 4 m/S 749 mmHg 50%
    15:00 +29°C° 0 mm 4 m/S 749 mmHg 54%
    16:00 +29°C° 0 mm 3 m/S 749 mmHg 57%
    17:00 +28°C° 0 mm 3 m/S 748 mmHg 61%
    18:00 +27°C° 0 mm 3 m/S 748 mmHg 63%
    19:00 +25°C° 0 mm 3 m/S 748 mmHg 65%
    20:00 +24°C° 0 mm 3 m/S 748 mmHg 67%
    21:00 +22°C° 0 mm 3 m/S 749 mmHg 67%
    22:00 +21°C° 0 mm 3 m/S 749 mmHg 66%
    23:00 +20°C° 0 mm 3 m/S 749 mmHg 66%

    übermorgen, 19 August, Samstag

    Zeit Temperatur Niederschläge Wind Luftdruck Luftfeuchtigkeit
    00:00 +20°C° 0 mm 3 m/S 749 mmHg 67%
    01:00 +19°C° 0 mm 3 m/S 748 mmHg 68%
    02:00 +19°C° 0 mm 3 m/S 748 mmHg 69%
    03:00 +18°C° 0 mm 3 m/S 748 mmHg 71%
    04:00 +18°C° 0 mm 3 m/S 748 mmHg 74%
    05:00 +17°C° 0 mm 3 m/S 748 mmHg 77%
    06:00 +19°C° 0 mm 3 m/S 748 mmHg 75%
    07:00 +20°C° 0 mm 3 m/S 748 mmHg 72%
    08:00 +22°C° 0 mm 4 m/S 749 mmHg 69%
    09:00 +25°C° 0 mm 4 m/S 749 mmHg 64%
    10:00 +27°C° 0 mm 4 m/S 749 mmHg 58%
    11:00 +28°C° 0 mm 4 m/S 749 mmHg 53%
    12:00 +29°C° 0 mm 4 m/S 749 mmHg 49%
    13:00 +30°C° 0 mm 4 m/S 748 mmHg 46%
    14:00 +32°C° 0 mm 4 m/S 748 mmHg 42%
    15:00 +30°C° 0 mm 4 m/S 748 mmHg 46%
    16:00 +30°C° 0 mm 3 m/S 748 mmHg 50%
    17:00 +29°C° 0 mm 3 m/S 747 mmHg 55%
    18:00 +28°C° 0 mm 3 m/S 747 mmHg 56%
    19:00 +26°C° 0 mm 4 m/S 747 mmHg 57%
    20:00 +25°C° 0 mm 4 m/S 747 mmHg 58%
    21:00 +25°C° 0 mm 4 m/S 747 mmHg 55%
    22:00 +25°C° 0 mm 4 m/S 747 mmHg 51%
    23:00 +23°C° 0 mm 5 m/S 747 mmHg 48%

    20 August, Sonntag

    Zeit Temperatur Niederschläge Wind Luftdruck Luftfeuchtigkeit
    00:00 +23°C° 0 mm 5 m/S 747 mmHg 48%
    01:00 +23°C° 0 mm 4 m/S 747 mmHg 48%
    02:00 +22°C° 0 mm 4 m/S 747 mmHg 48%
    03:00 +21°C° 0 mm 4 m/S 747 mmHg 51%
    04:00 +20°C° 0 mm 4 m/S 747 mmHg 54%
    05:00 +19°C° 0 mm 4 m/S 747 mmHg 56%
    06:00 +20°C° 0 mm 4 m/S 747 mmHg 59%
    07:00 +21°C° 0 mm 4 m/S 747 mmHg 61%
    08:00 +22°C° 0 mm 5 m/S 747 mmHg 64%
    09:00 +23°C° 0 mm 5 m/S 747 mmHg 61%
    10:00 +26°C° 0 mm 5 m/S 747 mmHg 59%
    11:00 +27°C° 0 mm 5 m/S 747 mmHg 56%
    12:00 +28°C° 0 mm 5 m/S 747 mmHg 54%
    13:00 +28°C° 0 mm 5 m/S 747 mmHg 53%
    14:00 +29°C° 0 mm 6 m/S 747 mmHg 51%
    15:00 +29°C° 0 mm 5 m/S 746 mmHg 53%
    16:00 +28°C° 0 mm 5 m/S 746 mmHg 56%
    17:00 +28°C° 0 mm 5 m/S 746 mmHg 58%
    18:00 +27°C° 0 mm 5 m/S 746 mmHg 58%
    19:00 +25°C° 0 mm 5 m/S 746 mmHg 58%
    20:00 +23°C° 0 mm 5 m/S 746 mmHg 58%
    21:00 +23°C° 0 mm 5 m/S 746 mmHg 59%
    22:00 +22°C° 0 mm 5 m/S 746 mmHg 60%
    23:00 +21°C° 0 mm 4 m/S 746 mmHg 61%

    21 August, Montag

    Zeit Temperatur Niederschläge Wind Luftdruck Luftfeuchtigkeit
    00:00 +20°C° 0 mm 4 m/S 746 mmHg 64%
    01:00 +20°C° 0 mm 4 m/S 745 mmHg 67%
    02:00 +19°C° 0 mm 4 m/S 745 mmHg 70%
    03:00 +18°C° 0 mm 4 m/S 745 mmHg 72%
    04:00 +18°C° 0 mm 4 m/S 745 mmHg 73%
    05:00 +17°C° 0 mm 4 m/S 744 mmHg 75%
    06:00 +18°C° 0 mm 4 m/S 744 mmHg 73%
    07:00 +19°C° 0 mm 4 m/S 744 mmHg 72%
    08:00 +21°C° 0 mm 4 m/S 744 mmHg 70%
    09:00 +22°C° 0 mm 4 m/S 744 mmHg 67%
    10:00 +25°C° 0 mm 4 m/S 743 mmHg 63%
    11:00 +26°C° 0 mm 4 m/S 743 mmHg 60%
    12:00 +27°C° 0 mm 4 m/S 743 mmHg 57%
    13:00 +28°C° 0 mm 3 m/S 743 mmHg 55%
    14:00 +29°C° 0 mm 3 m/S 742 mmHg 52%
    15:00 +28°C° 0,2 mm 3 m/S 742 mmHg 57%
    16:00 +27°C° 0,2 mm 3 m/S 742 mmHg 63%
    17:00 +27°C° 0,2 mm 3 m/S 742 mmHg 68%
    18:00 +23°C° 2,1 mm 4 m/S 742 mmHg 76%
    19:00 +21°C° 2,1 mm 4 m/S 742 mmHg 83%
    20:00 +19°C° 2,1 mm 4 m/S 742 mmHg 91%
    21:00 +18°C° 1,4 mm 4 m/S 742 mmHg 92%
    22:00 +18°C° 1,4 mm 4 m/S 742 mmHg 94%
    23:00 +17°C° 1,4 mm 3 m/S 742 mmHg 95%

    22 August, Dienstag

    Zeit Temperatur Niederschläge Wind Luftdruck Luftfeuchtigkeit
    00:00 +17°C° 0,9 mm 3 m/S 741 mmHg 95%
    01:00 +17°C° 0,9 mm 3 m/S 741 mmHg 95%
    02:00 +16°C° 0,9 mm 3 m/S 741 mmHg 95%
    03:00 +15°C° 0,3 mm 4 m/S 741 mmHg 95%
    04:00 +15°C° 0,3 mm 4 m/S 741 mmHg 95%
    05:00 +14°C° 0,3 mm 4 m/S 741 mmHg 95%
    06:00 +14°C° 0,4 mm 4 m/S 741 mmHg 94%
    07:00 +14°C° 0,4 mm 4 m/S 741 mmHg 94%
    08:00 +14°C° 0,4 mm 4 m/S 741 mmHg 93%
    09:00 +15°C° 0,2 mm 4 m/S 741 mmHg 90%
    10:00 +15°C° 0,2 mm 4 m/S 741 mmHg 88%
    11:00 +17°C° 0,2 mm 4 m/S 742 mmHg 85%
    12:00 +18°C° 0,1 mm 4 m/S 742 mmHg 81%
    13:00 +18°C° 0,1 mm 4 m/S 742 mmHg 78%
    14:00 +19°C° 0,1 mm 4 m/S 742 mmHg 74%
    15:00 +19°C° 0 mm 3 m/S 742 mmHg 73%
    16:00 +20°C° 0 mm 3 m/S 742 mmHg 72%
    17:00 +20°C° 0 mm 3 m/S 742 mmHg 70%
    18:00 +18°C° 0 mm 2 m/S 742 mmHg 76%
    19:00 +17°C° 0 mm 2 m/S 742 mmHg 82%
    20:00 +15°C° 0 mm 1 m/S 742 mmHg 88%
    21:00 +14°C° 0 mm 1 m/S 742 mmHg 89%
    22:00 +14°C° 0 mm 1 m/S 742 mmHg 91%
    23:00 +13°C° 0 mm 1 m/S 742 mmHg 92%
    Mehr zeigen